Regional Weather Roundup
Issued by NWS

Home | Current Version | Previous Version | Graphics & Text | Print | Product List | Glossary On
Versions: 1 2 3 4 5 6 7 8 9 10 11 12 13 14 15 16 17 18 19 20 21 22 23 24 25 26 27 28 29 30 31 32 33 34 35 36 37 38 39 40 41 42 43 44 45 46 47 48 49 50
000
ASUS43 KMKX 090621
RWRWI

WISCONSIN REGIONAL WEATHER ROUNDUP
NATIONAL WEATHER SERVICE MILWAUKEE/SULLIVAN WI
1200 AM CST TUE FEB 09 2016

NOTE: "FAIR" INDICATES FEW OR NO CLOUDS BELOW 12,000 FEET WITH NO
SIGNIFICANT WEATHER AND/OR OBSTRUCTIONS TO VISIBILITY.

WIZ001-002-006>008-014>016-023>028-090700-
NORTHWEST WISCONSIN

CITY           SKY/WX    TMP DP  RH WIND       PRES   REMARKS
SUPERIOR ARPT  CLOUDY     8  -1  67 N17       30.02S WCI -11
6HR MIN TEMP:   8; 6HR MAX TEMP:  11;

ASHLAND        CLOUDY    11   7  84 NW12      29.91S FOG     WCI  -3
6HR MIN TEMP:  10; 6HR MAX TEMP:  13; 6HR PCP: TRACE;

HAYWARD        CLOUDY     7   0  73 NW10G16   29.90S HAZE    WCI  -8
6HR MIN TEMP:   7; 6HR MAX TEMP:  10; 6HR PCP:  0.02;

SIREN          PTCLDY     7  -1  70 N13G18    29.98R WCI  -9
6HR MIN TEMP:   7; 6HR MAX TEMP:  12;

CUMBERLAND     CLOUDY     5   0  78 NW12      29.92R WCI -11
RICE LAKE      CLOUDY     7   0  72 NW13G20   29.94R WCI  -9
6HR MIN TEMP:   7; 6HR MAX TEMP:  13;

CHETEK         CLOUDY     7   1  75 MISG      29.92S
6HR MIN TEMP:   7; 6HR MAX TEMP:  12;

LADYSMITH      CLOUDY     9   4  78 NW12      29.88R WCI  -6
6HR MIN TEMP:   9; 6HR MAX TEMP:  13;

EAU CLAIRE     PTCLDY     9   0  67 NW10      29.91R WCI  -5
6HR MIN TEMP:   9; 6HR MAX TEMP:  13; 6HR PCP: TRACE;

MENOMONIE      CLOUDY    12   4  69 NW10G17   29.94R WCI  -1
6HR MIN TEMP:  12; 6HR MAX TEMP:  15;

NEW RICHMOND   CLOUDY     9   0  67 N17G25    29.97R WCI  -9
6HR MIN TEMP:   9; 6HR MAX TEMP:  13;

OSCEOLA        CLOUDY    10   1  67 NW10G18   30.01R WCI  -3
6HR MIN TEMP:  10; 6HR MAX TEMP:  14;

$$

WIZ003>005-009-010-017-018-090700-
NORTH CENTRAL WISCONSIN

CITY           SKY/WX    TMP DP  RH WIND       PRES   REMARKS
MANITOWISH WTR LGT SNOW  10   7  85 N8        29.76R WCI  -1
6HR MIN TEMP:  10; 6HR MAX TEMP:  12;

ARBOR VITAE    LGT SNOW  11   7  84 NW7       29.74S WCI   1
6HR MIN TEMP:  11; 6HR MAX TEMP:  14;

WOODRUFF       LGT SNOW  11   7  84 NW7       29.74S WCI   1
6HR MIN TEMP:  11; 6HR MAX TEMP:  14;

RHINELANDER    CLOUDY     8   4  83 W6        29.73S WCI  -2
6HR MIN TEMP:   9; 6HR MAX TEMP:  15; 6HR PCP: TRACE;

EAGLE RIVER    LGT SNOW  11   6  78 N10       29.72S WCI  -2
LAND O LAKES   LGT SNOW  11   7  82 N10       29.73S WCI  -2
6HR MIN TEMP:  11; 6HR MAX TEMP:  14;

PHILLIPS       FLURRIES   7   3  82 NW9       29.79S WCI  -6
6HR MIN TEMP:   7; 6HR MAX TEMP:  11;

TOMAHAWK       FLURRIES   8   3  81 NW7       29.77S WCI  -4
6HR MIN TEMP:   8; 6HR MAX TEMP:  14;

MEDFORD        FLURRIES   8   3  81 NW10      29.79R WCI  -7
6HR MIN TEMP:   8; 6HR MAX TEMP:  13;

MERRILL        FLURRIES  10   4  78 NW6       29.78S WCI   0
6HR MIN TEMP:  10; 6HR MAX TEMP:  17;

$$

WIZ029-030-035-036-043>047-090700-
CENTRAL WISCONSIN

CITY           SKY/WX    TMP DP  RH WIND       PRES   REMARKS
WAUSAU         CLOUDY    12   5  73 NW8       29.76S WCI   0
6HR MIN TEMP:  12; 6HR MAX TEMP:  19; 6HR PCP: TRACE;

MOSINEE        FLURRIES  10   7  85 NW5       29.79S WCI   2
MARSHFIELD     CLOUDY    10   2  69 NW17      29.79S WCI  -8
6HR MIN TEMP:   9; 6HR MAX TEMP:  15; 6HR PCP: TRACE;

STEVENS POINT  PTCLDY    10   4  77 NW7       29.79S WCI  -1
6HR MIN TEMP:  10; 6HR MAX TEMP:  17;

WAUPACA        CLOUDY    17  11  77 NW10      29.78S WCI   5
6HR MIN TEMP:  17; 6HR MAX TEMP:  27;

WAUTOMA        CLOUDY    14   9  81 NW9       29.80S HAZE    WCI   2
6HR MIN TEMP:  14; 6HR MAX TEMP:  21; 6HR PCP: TRACE;

WISC RAPIDS    CLOUDY    11   3  70 NW9       29.82S WCI  -2
6HR MIN TEMP:  11; 6HR MAX TEMP:  16; 6HR PCP: TRACE;

CAMP DOUGLAS   CLOUDY    12  10  92 NW12      29.83S WCI  -2
6HR MIN TEMP:  12; 6HR MAX TEMP:  15; 6HR PCP: TRACE;

$$

WIZ011>013-019>022-031-037>040-048>050-090700-
NORTHEAST WISCONSIN

CITY           SKY/WX    TMP DP  RH WIND       PRES   REMARKS
ANTIGO         LGT SNOW  10   6  85 NW9       29.72S WCI  -3
6HR MIN TEMP:  10; 6HR MAX TEMP:  16;

SHAWANO        FLURRIES  18  10  72 NW7       29.77S WCI   9
6HR MIN TEMP:  18; 6HR MAX TEMP:  28;

OCONTO         PTCLDY    17  10  75 N8        29.76S WCI   6
6HR MIN TEMP:  17; 6HR MAX TEMP:  25;

STURGEON BAY   CLOUDY    18   7  62 N14G20    29.75S WCI   4
6HR MIN TEMP:  18; 6HR MAX TEMP:  25;

GREEN BAY      CLOUDY    18  10  71 NW12      29.75S WCI   5
6HR MIN TEMP:  18; 6HR MAX TEMP:  27; 6HR PCP:  0.01;

MANITOWOC      FLURRIES  19  14  81 N15       29.74S WCI   5
6HR MIN TEMP:  19; 6HR MAX TEMP:  27; 6HR PCP:  0.02;

APPLETON       CLOUDY    18  10  73 NW12G17   29.73F WCI   5
CLINTONVILLE   CLOUDY    18  10  73 NW6       29.77S WCI   9
OSHKOSH        FLURRIES  18  11  74 NW12      29.75S WCI   5
6HR MIN TEMP:  18; 6HR MAX TEMP:  25; 6HR PCP: TRACE;

$$

WIZ032>034-041-042-053>061-090700-
SOUTHWEST WISCONSIN

CITY           SKY/WX    TMP DP  RH WIND       PRES   REMARKS
LA CROSSE      CLOUDY    13   5  70 N16       29.91R WCI  -3
6HR MIN TEMP:  13; 6HR MAX TEMP:  15; 6HR PCP:  0.04;

SPARTA         FLURRIES  13   8  79 NW9       29.88R WCI   1
6HR MIN TEMP:  13; 6HR MAX TEMP:  15;

VIROQUA        CLOUDY    12   8  86 N13       29.82S WCI  -3
6HR MIN TEMP:  12; 6HR MAX TEMP:  13;

BOSCOBEL       FLURRIES  15   9  76 N6        29.87S WCI   6
6HR MIN TEMP:  15; 6HR MAX TEMP:  18; 6HR PCP: TRACE;

PRAIRIE DU CHI MIX PCPN  15   8  76 NW7       29.89R WCI   5
6HR MIN TEMP:  15; 6HR MAX TEMP:  17;

PLATTEVILLE    CLOUDY    14  11  85 NW14      29.81S WCI   0
6HR MIN TEMP:  14; 6HR MAX TEMP:  19;

$$

WIZ056-057-062-063-064-067-068-090700-
SOUTH CENTRAL WISCONSIN

CITY           SKY/WX    TMP DP  RH WIND       PRES   REMARKS
REEDSBURG      LGT SNOW  13   8  81 NW14      29.81S WCI  -2
6HR MIN TEMP:  13; 6HR MAX TEMP:  18;

BARABOO/DELLS  LGT SNOW  13   8  79 NW10G17   29.80S WCI   0
6HR MIN TEMP:  13; 6HR MAX TEMP:  19;

LONE ROCK      FLURRIES  15   7  70 NW10      29.84S WCI   2
6HR MIN TEMP:  15; 6HR MAX TEMP:  20; 6HR PCP: TRACE;

MINERAL POINT  LGT SNOW  16  12  86 NW10      29.79S WCI   3
MADISON        LGT SNOW  14   9  80 NW9       29.78S WCI   2
6HR MIN TEMP:  14; 6HR MAX TEMP:  21; 6HR PCP:  0.01;

MIDDLETON      CLOUDY    16  11  82 NW13      29.79S WCI   2
6HR MIN TEMP:  16; 6HR MAX TEMP:  23;

WATERTOWN      LGT SNOW  16  14  94 NW9G16    29.76S WCI   4
6HR MIN TEMP:  16; 6HR MAX TEMP:  23;

MONROE         LGT SNOW  16  12  86 NW7G16    29.77S WCI   6
JANESVILLE     CLOUDY    19  12  73 NW12      29.78R WCI   7
$$

WIZ051-052-058>065-066-070>072-090700-
SOUTHEAST WISCONSIN

CITY           SKY/WX    TMP DP  RH WIND       PRES   REMARKS
MILWAUKEE      FLURRIES  19  14  81 NW13      29.73R WCI   6
6HR MIN TEMP:  19; 6HR MAX TEMP:  26; 6HR PCP:  0.01;

WAUKESHA       CLOUDY    16  12  86 NW13G18   29.74S WCI   2
MILWAUKEE/TIMM FLURRIES  19  12  73 NW10      29.74S WCI   8
RACINE         LGT SNOW  19  13  77 NW13G20   29.73F WCI   6
6HR MIN TEMP:  19; 6HR MAX TEMP:  25; 6HR PCP:  0.02;

BURLINGTON     FLURRIES  16  11  80 NW12G17   29.74S WCI   3
6HR MIN TEMP:  16; 6HR MAX TEMP:  23;

KENOSHA        LGT SNOW  19  14  81 NW12      29.73S WCI   7
6HR MIN TEMP:  19; 6HR MAX TEMP:  25; 6HR PCP: TRACE;

FOND DU LAC    FLURRIES  18  13  80 NW13      29.75S WCI   5
6HR MIN TEMP:  18; 6HR MAX TEMP:  24; 6HR PCP: TRACE;

SHEBOYGAN      LGT SNOW  19  13  77 N9        29.73S WCI   8
6HR MIN TEMP:  19; 6HR MAX TEMP:  26; 6HR PCP:  0.01;

WEST BEND      FLURRIES  18  14  86 NW9       29.73R WCI   6
JUNEAU         LGT SNOW  15  11  85 NW8       29.76S WCI   4
6HR MIN TEMP:  15; 6HR MAX TEMP:  22;

$$

LSZ147-162-090700-
LAKE SUPERIOR

STATION/POSITION TIME  TEMP    WIND        PRES    WAVE
                       AIR SEA DIR/SP/G            HT/PER
                 (UTC) (F)     (DEG/KT/KT) (MB)    (FT/S)
DEVILS ISLAND    0600   14     350/ 23/ 25 1014.7R
PORT WING        0520   13     330/ 19/ 26 1014.6S
SAXON HARBOR     0500   16                 1011.9
$$

LMZ867-665-643>646-090700-
LAKE MICHIGAN

STATION/POSITION TIME  TEMP    WIND        PRES    WAVE
                       AIR SEA DIR/SP/G            HT/PER
                 (UTC) (F)   C1F1C2F2C3F3C4F4C5F5C6F6C7F7C8M1C9M2Ca!


USA.gov is the U.S. government's official web portal to all federal, state and local government web resources and services.